Location: Usti nad Labem
(50.6667°N, 14.0333°E)
Time: 05:36:58
(UTC+02:00)

ISS - Visible Passes

Search period start: 23 September 2017 00:00
Search period end: 03 October 2017 00:00
Orbit: 401 x 407 km, 51.6° (Epoch: 23 September)

Date Brightness Start Highest point End Pass type
(mag) Time Alt. Az. Time Alt. Az. Time Alt. Az.
26 Sep -2.2 20:27:56 10° SSW 20:29:49 21° SSE 20:29:49 21° SSE visible
27 Sep -1.9 19:36:30 10° S 19:38:27 15° SE 19:39:58 12° ESE visible
27 Sep -1.9 21:11:11 10° WSW 21:12:38 23° SW 21:12:38 23° SW visible
28 Sep -3.3 20:19:01 10° SW 20:22:07 40° SSE 20:22:37 37° SE visible
28 Sep -0.5 21:55:11 10° W 21:55:16 11° W 21:55:16 11° W visible
29 Sep -2.6 19:27:02 10° SSW 19:29:51 27° SSE 19:32:28 11° E visible
29 Sep -2.8 21:02:47 10° WSW 21:05:07 43° WSW 21:05:07 43° WSW visible
30 Sep -3.8 20:10:25 10° WSW 20:13:40 66° SSE 20:14:51 35° E visible
30 Sep -0.8 21:46:53 10° W 21:47:30 15° W 21:47:30 15° W visible
01 Oct -3.3 19:18:09 10° SW 19:21:18 46° SSE 19:24:28 10° E visible
01 Oct -3.2 20:54:25 10° W 20:57:10 57° WNW 20:57:10 57° WNW visible
02 Oct -3.9 20:01:57 10° WSW 20:05:14 88° NNW 20:06:45 29° ENE visible
02 Oct -0.9 21:38:31 10° W 21:39:24 17° WNW 21:39:24 17° WNW visible
